Location: Huberhof
(49.2050°N, 7.4980°E)
Time: 00:28:23
(UTC+00:00)

Cosmos 1777 Rocket - Pass Details

Date: 29 October 2020
Orbit: 759 x 775 km, 74.0° (Epoch: 26 November)

Event Time Altitude Azimuth Distance (km) Brightness Sun altitude
Rises 18:30:47 0° 337° (NNW) 3,230 7.6 -22.9°
Reaches altitude 10° 18:33:11 10° 340° (NNW) 2,301 6.8 -23.3°
Maximum altitude 18:38:23 70° 65° (ENE) 813 3.8 -24.2°
Enters shadow 18:38:38 68° 85° (E) 819 3.8 -24.2°
